{"data":{"norad_id":42950,"intl_designator":"2017-059A","name":"INTELSAT 37E (IS-37E)","alt_names":[],"object_type":"PAYLOAD","status":"ACTIVE","operator":null,"country":"ITSO","launch_date":"2017-09-29","launch_site_code":"FRGUI","launch_vehicle":null,"mission":null,"orbit_class":"UNKNOWN","rcs_meters":null,"size_class":null,"mass_kg":null,"dimensions":null,"purposes":["comms"],"wikipedia_slug":null,"has_3d_model":false,"image_url":null,"decayed_at":null,"tle_current":{"epoch":"2026-09-19T23:43:42.441024Z","epoch_age_seconds":58616,"freshness":"FRESH","line1":"1 42950U 17059A   26262.98868566 -.00000145  00000+0  00000+0 0  9995","line2":"2 42950   0.0188 152.0240 0002726  23.5990 161.2068  1.00271785 33010","mean_motion":1.00271785,"eccentricity":0.0002726,"inclination_deg":0.0188,"raan_deg":152.024,"arg_perigee_deg":23.599,"mean_anomaly_deg":161.2068,"bstar":0,"rev_number":3301,"period_min":1436.0969040294,"perigee_km":35775.100855258,"apogee_km":35798.089067123,"semimajor_km":42164.731961191,"source":"CELESTRAK","updated_at":"2026-09-20T09:00:35.523546Z"}}}